Location: Unspecified
(0.0000°N, 0.0000°E)
Time: 10:00:29
(UTC+00:00)

Vanguard 2 - Pass Details

Date: 12 December 2017
Orbit: 554 x 2939 km, 32.9° (Epoch: 24 June)

Event Time Altitude Azimuth Distance (km) Brightness Sun altitude
Exits shadow 01:23:00 28° 152° (SSE) 3,069 10.7 -58.3°
Drops below altitude 10° 01:29:02 10° 138° (SE) 4,777 11.9 -57.3°
Sets 01:33:51 0° 133° (SE) 6,133 12.6 -56.4°
